Wind_Speed
6 6 7 7 6 6 6 6 6 6 6 5 5 6 6 6 6 7 7 6 6 7 7 7 8 8 9 9 10 10 9 9 9 9 10 10 9 9 9 9 9 9 9
7 7 7 7 7 7 7 6 6 6 6 5 5 6 7 7 7 6 7 7 7 7 7 7 8 9 8 9 9 9 9 9 9 9 10 10 10 10 9 9 10 10 10
8 7 8 7 7 8 8 7 7 7 6 7 7 8 8 8 8 7 7 8 8 8 8 8 8 8 8 8 8 9 9 9 10 10 10 10 10 10 10 11 11 12 12
9 8 8 8 8 8 7 8 8 8 8 8 9 9 9 9 9 9 9 9 9 8 8 8 7 7 7 8 8 8 8 9 10 10 10 10 11 11 11 12 12 13 12
10 10 9 9 8 8 8 8 8 8 9 9 9 8 9 9 10 10 10 10 9 9 9 8 8 7 8 9 9 9 9 9 10 11 11 11 12 12 12 13 13 13 12
11 11 10 10 9 9 9 9 9 9 9 9 9 9 9 10 10 9 9 9 9 8 8 8 9 9 9 9 10 10 10 11 11 12 12 11 11 11 12 12 12 12 11
11 11 10 10 10 10 10 10 10 10 10 10 10 10 10 10 9 9 9 9 9 8 8 8 9 9 9 9 9 10 10 11 11 12 12 12 12 11 11 12 12 11 11
11 11 11 10 10 11 11 11 10 10 9 9 10 10 10 10 10 9 9 9 9 9 9 9 9 10 10 10 11 11 11 11 11 12 12 12 11 11 11 11 12 11 12
11 11 12 11 11 11 12 12 11 11 10 11 11 11 10 9 10 10 10 10 10 10 9 10 10 11 11 11 11 12 12 11 11 12 11 11 11 11 12 12 12 13 13
12 12 12 12 11 11 11 11 11 11 11 11 12 12 11 10 10 10 10 10 11 11 11 11 11 11 12 12 12 12 11 11 11 11 11 11 11 11 12 12 12 12 13
13 12 13 13 12 11 11 10 11 11 10 10 11 11 11 11 11 11 11 11 12 12 12 13 13 12 12 12 12 12 12 12 11 11 11 11 11 12 12 12 13 13 13
14 13 12 12 11 11 11 10 10 10 10 10 10 10 11 11 12 12 12 12 13 13 13 13 14 13 13 12 13 13 13 13 12 13 12 12 12 12 13 13 14 14 15
14 13 13 12 11 11 11 11 11 12 12 12 12 11 11 12 12 12 12 12 12 12 13 14 14 13 13 13 13 13 14 14 13 13 13 13 13 13 14 15 15 15 15
14 14 13 13 12 11 12 12 12 13 13 13 13 13 13 13 13 14 13 13 13 13 14 14 14 14 15 15 15 15 15 15 15 15 15 15 15 15 15 15 16 16 16
14 14 14 14 14 13 13 13 13 13 14 14 14 14 14 14 14 15 15 15 14 15 15 16 15 16 16 17 17 17 17 16 16 17 17 17 16 16 16 17 17 17 17
15 15 14 14 14 14 14 14 14 15 15 15 15 15 15 15 15 16 16 16 16 16 16 17 17 17 17 17 17 18 18 18 19 19 18 18 18 18 18 18 18 18 19
16 15 15 15 15 15 15 15 15 16 16 17 17 17 16 16 16 16 16 17 17 17 17 17 17 17 18 18 18 18 19 19 19 20 20 20 19 20 20 20 20 20 20
17 17 16 16 16 15 15 16 17 17 17 18 18 18 17 17 17 17 17 17 17 17 18 17 18 18 18 19 20 20 20 20 20 20 20 20 20 21 21 21 21 21 21
18 18 17 17 16 16 16 17 18 18 18 18 18 18 18 18 18 19 18 18 18 19 19 19 19 19 19 20 20 21 21 21 21 21 21 21 21 21 22 22 22 22 22
20 19 19 19 18 18 18 19 19 19 19 19 19 20 20 20 20 20 20 20 20 20 21 21 21 21 21 21 21 21 21 21 21 22 22 21 21 21 22 22 23 23 24
21 21 20 21 20 19 20 20 20 20 21 21 21 21 22 21 21 21 21 21 21 21 22 22 22 23 23 23 23 23 22 22 22 23 23 23 23 23 23 23 23 24 25
22 22 22 22 21 21 21 21 21 22 22 24 24 23 24 24 23 22 22 22 23 23 24 24 24 24 24 24 24 24 24 23 23 24 24 24 24 25 25 25 25 25 25
23 23 23 23 22 22 22 23 23 23 24 24 24 24 24 25 24 24 24 24 25 25 25 26 25 25 25 24 24 24 25 25 25 25 25 25 26 26 26 26 25 25 25
23 24 23 23 23 23 23 24 25 25 24 24 24 24 25 25 25 25 26 26 27 27 27 27 26 26 26 26 26 26 26 26 26 26 26 26 26 26 26 26 26 26 26
23 24 24 24 24 24 25 26 26 25 25 24 24 24 25 26 26 26 26 26 27 28 28 28 27 27 27 27 27 27 27 27 26 26 26 27 27 26 26 26 26 27 27
24 25 25 25 25 26 27 27 27 26 25 26 26 25 25 26 26 26 26 27 27 27 27 27 27 27 27 28 28 28 27 27 27 27 28 28 27 27 27 27 27 27 27
Wind_Direction
301 302 301 295 289 282 276 277 278 278 280 283 288 292 287 286 289 287 282 281 279 272 272 276 277 273 267 262 258 257 255 252 256 262 266 270 272 274 278 280 286 285 288
298 297 300 295 288 283 281 278 279 281 283 279 283 288 290 289 293 292 286 285 278 272 275 277 278 276 276 272 266 260 263 262 262 267 269 271 272 274 277 282 286 288 286
303 296 292 291 287 284 281 280 280 282 281 279 280 282 285 290 290 286 281 279 278 278 281 282 280 278 277 276 275 271 268 269 268 271 276 273 273 272 273 277 280 282 284
299 295 291 288 287 287 283 279 278 278 279 278 278 279 281 286 290 285 279 277 275 277 282 283 277 276 275 276 278 279 276 275 271 274 274 275 275 274 276 277 277 279 280
297 294 293 290 287 285 283 281 282 279 279 275 277 282 283 285 287 285 283 283 280 277 277 277 276 277 274 272 274 276 277 278 276 276 278 278 277 275 279 279 279 276 278
301 297 293 293 287 281 280 282 281 280 280 277 276 278 285 286 284 283 286 287 284 280 278 282 281 279 275 274 273 277 280 280 280 282 283 283 281 279 280 279 280 280 281
300 299 294 291 286 280 279 280 279 280 281 281 283 283 283 285 287 286 283 283 285 287 288 288 281 276 277 279 280 283 283 283 283 284 283 280 281 282 282 283 284 282 283
299 297 293 289 287 283 280 278 276 279 280 279 282 284 283 286 288 285 279 280 284 287 287 287 286 282 278 280 285 286 284 284 285 285 285 282 282 282 285 285 287 285 286
300 295 291 288 285 282 279 277 278 278 277 277 281 283 287 289 287 287 282 280 283 286 289 285 285 286 283 282 286 287 286 286 285 285 284 284 286 285 285 288 291 287 285
297 291 286 284 282 280 280 279 279 280 276 278 279 281 286 288 291 289 284 282 284 285 286 289 288 285 286 284 285 287 287 287 285 285 282 280 280 283 284 286 289 290 288
297 292 285 283 279 276 277 278 279 279 277 278 280 282 284 288 292 291 287 284 285 282 283 285 287 286 285 283 282 286 285 285 287 287 285 283 280 283 285 286 286 288 289
302 300 291 287 285 280 277 277 279 282 279 280 282 284 284 288 294 293 290 287 284 284 284 284 284 285 284 283 281 282 286 285 286 286 285 285 283 283 283 284 285 286 289
299 298 295 289 285 280 276 277 279 281 283 282 283 283 284 286 289 289 290 292 290 288 285 284 284 283 282 283 281 279 282 283 282 283 281 282 283 283 283 282 283 286 288
300 295 293 288 285 280 276 276 279 280 283 282 283 284 285 285 288 286 287 292 292 291 288 286 284 284 283 281 279 278 279 281 280 283 283 283 282 283 284 285 283 284 286
299 298 293 288 283 281 280 279 278 281 281 282 283 285 286 286 288 287 286 288 291 293 293 289 286 284 285 284 281 279 278 279 278 281 282 284 283 284 283 283 284 284 284
297 301 295 289 285 282 280 279 278 281 284 283 283 283 284 286 287 286 288 289 291 292 292 291 286 284 283 282 282 281 279 278 278 280 281 281 282 283 282 282 283 284 284
293 297 295 290 287 285 281 280 279 280 281 282 283 282 282 283 284 285 286 288 291 292 290 289 287 285 283 281 281 280 279 278 278 278 279 279 281 282 282 282 281 282 283
291 292 294 289 285 286 282 281 282 282 283 282 282 282 280 281 282 284 286 289 290 290 289 289 287 284 283 283 281 278 278 279 279 279 280 281 281 282 282 281 279 280 281
288 289 289 290 286 285 285 284 282 282 283 283 283 282 280 280 282 283 285 287 289 288 289 289 289 286 285 284 280 278 277 279 279 280 280 282 281 282 282 281 279 279 280
283 283 285 286 287 287 287 287 282 280 281 281 282 282 280 279 280 282 284 286 288 289 288 288 288 286 284 284 281 278 277 279 280 281 281 282 283 282 281 281 280 280 280
278 280 281 283 285 286 288 288 284 279 278 279 281 281 281 279 280 281 283 285 286 288 288 288 288 286 284 283 281 278 275 278 278 281 281 282 282 283 280 280 281 282 282
278 279 280 281 283 285 287 289 287 283 280 280 280 280 280 278 278 281 282 283 285 287 286 288 288 284 283 283 282 280 277 277 278 281 281 282 283 284 281 279 279 281 283
278 279 280 282 283 285 288 289 287 285 284 282 280 280 281 279 279 279 280 282 284 285 285 286 286 284 283 282 282 281 279 277 276 278 279 281 283 285 283 279 278 280 281
279 280 280 282 283 286 289 289 287 285 284 284 281 280 281 282 278 278 279 281 284 285 285 284 283 281 281 281 281 281 280 278 278 278 279 280 281 283 283 280 278 278 279
281 282 282 283 284 288 289 290 288 287 286 287 285 283 282 282 281 279 280 282 284 285 285 283 282 280 280 280 281 281 280 281 281 280 280 281 281 282 283 282 281 280 281
280 282 282 284 286 289 291 291 287 286 285 286 286 284 284 284 283 281 282 283 284 284 284 282 281 280 280 281 281 281 281 281 282 282 281 281 281 280 281 281 281 279 278
Height
5874 5874 5873 5873 5873 5873 5873 5873 5873 5873 5873 5873 5873 5873 5873 5873 5873 5873 5873 5874 5874 5874 5874 5874 5874 5874 5874 5874 5875 5875 5876 5876 5877 5877 5878 5878 5879 5879 5879 5879 5879 5879 5879
5873 5872 5872 5872 5872 5872 5872 5872 5872 5872 5872 5872 5872 5872 5872 5872 5872 5872 5872 5872 5873 5873 5873 5873 5873 5873 5873 5873 5873 5873 5874 5875 5875 5875 5876 5876 5876 5877 5877 5877 5877 5877 5877
5871 5871 5871 5871 5870 5870 5870 5870 5871 5871 5871 5871 5871 5871 5871 5871 5871 5871 5871 5871 5871 5871 5871 5871 5871 5871 5871 5871 5871 5872 5872 5873 5873 5874 5874 5874 5875 5875 5875 5875 5875 5875 5875
5870 5870 5870 5869 5869 5869 5869 5869 5870 5870 5870 5870 5870 5870 5870 5870 5870 5869 5869 5869 5869 5869 5869 5869 5869 5869 5870 5870 5870 5871 5871 5871 5871 5872 5872 5872 5872 5872 5872 5872 5872 5872 5872
5868 5868 5868 5868 5868 5868 5868 5868 5868 5868 5868 5868 5868 5868 5868 5868 5868 5868 5868 5868 5868 5868 5868 5867 5867 5867 5868 5868 5868 5869 5869 5869 5869 5870 5870 5870 5870 5870 5870 5870 5870 5869 5869
5867 5866 5866 5866 5866 5866 5866 5866 5866 5866 5866 5866 5866 5866 5866 5867 5866 5866 5866 5866 5866 5866 5865 5866 5866 5866 5866 5866 5867 5867 5867 5867 5867 5867 5867 5867 5867 5867 5867 5867 5867 5867 5866
5865 5865 5864 5864 5864 5864 5865 5865 5865 5864 5865 5865 5864 5864 5865 5864 5864 5864 5864 5864 5864 5864 5864 5864 5864 5864 5864 5864 5864 5865 5865 5864 5865 5865 5865 5865 5865 5865 5865 5864 5864 5864 5864
5864 5863 5863 5862 5862 5862 5862 5862 5862 5862 5862 5863 5863 5863 5863 5863 5862 5862 5862 5862 5862 5862 5862 5862 5862 5862 5862 5862 5862 5862 5862 5862 5862 5862 5862 5862 5862 5862 5862 5862 5862 5861 5861
5862 5861 5860 5860 5860 5860 5860 5860 5860 5860 5860 5861 5860 5861 5861 5860 5860 5861 5860 5860 5860 5859 5859 5858 5858 5859 5859 5860 5859 5859 5859 5859 5859 5859 5859 5859 5859 5859 5859 5859 5859 5858 5858
5860 5859 5858 5858 5858 5858 5857 5857 5857 5858 5858 5858 5858 5858 5859 5858 5857 5858 5858 5858 5857 5857 5857 5856 5856 5856 5856 5856 5857 5856 5856 5856 5856 5856 5856 5856 5856 5856 5856 5856 5856 5855 5855
5857 5856 5856 5856 5856 5855 5855 5855 5855 5855 5856 5856 5856 5856 5856 5856 5855 5855 5856 5855 5855 5854 5854 5854 5854 5853 5853 5853 5853 5853 5852 5852 5853 5853 5853 5853 5853 5853 5853 5853 5852 5852 5852
5854 5854 5854 5853 5853 5853 5853 5853 5853 5853 5853 5853 5854 5854 5854 5853 5853 5853 5852 5852 5852 5852 5852 5851 5850 5849 5850 5850 5850 5850 5850 5850 5850 5850 5850 5850 5850 5849 5849 5849 5849 5848 5848
5852 5851 5851 5851 5850 5850 5851 5851 5851 5851 5851 5851 5851 5851 5851 5851 5850 5850 5849 5849 5848 5849 5848 5848 5847 5847 5847 5846 5847 5846 5847 5847 5847 5846 5846 5846 5846 5846 5846 5846 5845 5845 5844
5849 5849 5848 5848 5848 5848 5848 5848 5849 5848 5848 5848 5848 5848 5848 5848 5847 5847 5846 5846 5845 5845 5845 5844 5844 5843 5843 5843 5843 5843 5843 5843 5843 5842 5842 5842 5842 5842 5842 5841 5841 5840 5840
5846 5846 5845 5845 5845 5845 5845 5845 5845 5845 5845 5845 5845 5845 5844 5844 5844 5843 5843 5843 5843 5842 5841 5840 5839 5839 5839 5839 5838 5838 5839 5839 5838 5838 5838 5838 5837 5837 5837 5837 5836 5836 5835
5843 5843 5842 5842 5842 5842 5842 5842 5842 5842 5842 5841 5841 5841 5841 5840 5840 5840 5839 5839 5838 5838 5837 5836 5834 5834 5834 5834 5833 5833 5833 5833 5833 5833 5833 5833 5833 5832 5832 5831 5831 5831 5830
5840 5840 5839 5839 5839 5838 5838 5838 5838 5838 5838 5837 5837 5837 5837 5836 5836 5836 5835 5834 5834 5833 5833 5832 5830 5830 5829 5828 5828 5828 5828 5828 5828 5828 5828 5828 5827 5827 5826 5826 5826 5825 5824
5837 5836 5836 5835 5835 5834 5834 5834 5834 5834 5833 5833 5833 5832 5832 5832 5831 5831 5830 5830 5829 5828 5828 5827 5826 5825 5824 5823 5823 5823 5823 5823 5822 5822 5822 5822 5821 5821 5820 5820 5820 5819 5818
5833 5833 5832 5832 5831 5831 5830 5830 5829 5829 5828 5828 5828 5827 5827 5827 5826 5826 5825 5825 5824 5823 5822 5822 5821 5820 5819 5818 5818 5817 5817 5817 5817 5817 5816 5816 5815 5815 5814 5814 5813 5813 5812
5829 5828 5828 5827 5827 5826 5826 5825 5824 5824 5823 5823 5823 5822 5822 5821 5821 5821 5820 5819 5819 5818 5817 5816 5815 5814 5813 5812 5812 5812 5811 5811 5810 5810 5810 5809 5808 5808 5808 5807 5807 5806 5805
5824 5823 5823 5823 5822 5821 5821 5820 5819 5818 5818 5818 5817 5817 5816 5816 5815 5815 5814 5813 5813 5812 5811 5810 5809 5808 5807 5806 5806 5805 5805 5804 5804 5803 5803 5802 5802 5801 5801 5800 5800 5799 5798
5818 5818 5818 5817 5817 5816 5815 5814 5814 5813 5812 5812 5811 5810 5810 5809 5809 5808 5807 5807 5806 5805 5804 5804 5802 5801 5800 5800 5799 5798 5798 5798 5797 5797 5796 5796 5795 5794 5793 5793 5792 5791 5790
5812 5812 5812 5811 5811 5810 5810 5809 5808 5807 5806 5805 5804 5804 5803 5802 5802 5802 5801 5800 5799 5798 5797 5797 5796 5794 5793 5793 5792 5791 5791 5790 5790 5789 5789 5788 5788 5787 5786 5785 5784 5784 5783
5806 5806 5805 5805 5805 5804 5803 5803 5802 5800 5800 5799 5798 5797 5796 5796 5795 5794 5794 5793 5792 5791 5790 5789 5788 5787 5786 5785 5785 5784 5783 5783 5782 5781 5781 5781 5780 5779 5778 5777 5776 5776 5775
5800 5800 5799 5799 5798 5798 5797 5796 5795 5794 5793 5792 5791 5790 5789 5789 5788 5787 5786 5786 5785 5783 5782 5781 5780 5779 5778 5778 5777 5776 5776 5775 5774 5773 5772 5772 5771 5770 5770 5769 5768 5767 5767
5794 5793 5793 5792 5792 5791 5790 5789 5788 5787 5786 5785 5784 5783 5782 5781 5780 5779 5779 5778 5777 5776 5774 5773 5772 5772 5771 5770 5769 5768 5768 5767 5766 5765 5764 5763 5763 5762 5761 5761 5759 5759 5758